time_stamp(utc),avg(mph),gust(mph),direction(deg),12m_air_temp(f),sonic_u(cm/s),sonic_v(cm/s),sonic_w(cm/s),pressure,2m_air_temp(f),pyranometer(W/m^2)
"2021-12-29 00:00:40+00",4.9,5.9,,,-19,-203,-8,1011.06,44,0
"2021-12-29 00:05:40+00",4.7,5.7,,44.4,-47,-198,1,1011.23,43.9,0
"2021-12-29 00:10:40+00",5.5,6.5,,,-38,-228,-3,1011.22,43.9,0
"2021-12-29 00:15:40+00",4.8,4.8,,44.6,5,-200,-2,1010.96,43.9,0
"2021-12-29 00:20:40+00",2.0,3.0,,44.8,-53,-59,-4,1011.37,43.9,0
"2021-12-29 00:25:40+00",3.0,4.0,,44.8,-115,-60,6,1011.55,43.9,0
"2021-12-29 00:30:40+00",3.5,3.5,,44.9,-8,-139,1,1011.03,43.9,0
"2021-12-29 00:35:40+00",5.8,5.8,,,145,-202,-5,1010.52,43.8,0
"2021-12-29 00:40:40+00",7.0,7.0,,44.9,167,-249,-1,1010.33,43.6,0
"2021-12-29 00:45:40+00",6.4,7.4,,44.7,129,-241,-1,1010.39,43.4,0
"2021-12-29 00:50:40+00",6.8,7.8,,44.8,105,-268,-3,1010.31,43.6,0
"2021-12-29 00:55:40+00",7.7,8.7,,,78,-317,-7,1010.11,43.8,0
"2021-12-29 01:00:40+00",6.6,7.6,,45,62,-270,-6,1010.06,44.1,0
"2021-12-29 01:05:40+00",5.9,6.9,,,50,-239,-14,1010.2,44.3,0
"2021-12-29 01:10:40+00",5.8,6.8,,45.2,28,-228,-4,1010.21,44.5,0
"2021-12-29 01:15:40+00",4.9,5.9,,,-9,-195,-7,1010.43,44.5,0
"2021-12-29 01:20:40+00",5.0,6.0,,,-41,-203,-3,1010.31,44.6,0
"2021-12-29 01:25:40+00",4.8,4.8,,,-140,-148,0,1010.79,44.6,0
"2021-12-29 01:30:40+00",2.0,2.0,,45.1,-63,-46,-6,1010.74,44.6,0
"2021-12-29 01:35:40+00",1.5,1.5,,45.1,-48,-5,-8,1010.65,44.5,0
"2021-12-29 01:40:40+00",4.9,5.9,,,25,-204,-5,1010.5,44.5,0
"2021-12-29 01:45:40+00",3.6,3.6,,,-86,-127,-2,1010.72,44.4,0
"2021-12-29 01:50:40+00",3.1,3.1,,,-114,-42,6,1011.18,44.4,0
"2021-12-29 01:55:40+00",2.8,3.8,,45.2,-102,41,4,1011.03,44.2,0
"2021-12-29 02:00:40+00",2.8,3.8,,45.1,-4,-105,-4,1010.46,44.1,0
"2021-12-29 02:05:40+00",4.5,4.5,,,77,-169,-1,1010.16,44.1,0
"2021-12-29 02:10:40+00",5.1,6.1,,,4,-214,-9,1010.36,44,0
"2021-12-29 02:15:40+00",2.3,3.3,,,-42,-69,-11,1010.59,44,0
"2021-12-29 02:20:40+00",6.0,7.0,,,-231,148,13,1011.5,44,0
"2021-12-29 02:25:40+00",6.7,9.7,,,-264,109,14,1011.86,43.9,0
"2021-12-29 02:30:40+00",2.4,2.4,,,-89,22,2,1011.34,43.9,0
"2021-12-29 02:35:40+00",2.3,3.3,,44.5,-85,-22,0,1011.26,43.9,0
"2021-12-29 02:40:40+00",1.5,1.5,,44.4,-2,-58,-5,1010.73,43.7,0
"2021-12-29 02:45:40+00",4.2,5.2,,,38,-167,-8,1010.5,43.6,0
"2021-12-29 02:50:40+00",5.2,5.2,,44.6,-27,-213,-5,1010.32,43.6,0
"2021-12-29 02:55:40+00",4.4,4.4,,,25,-184,-6,1010.24,43.6,0
"2021-12-29 03:00:40+00",3.2,4.2,,,-32,-123,-4,1010.41,43.6,0
"2021-12-29 03:05:40+00",3.7,4.7,,,98,-118,-3,1009.94,43.7,0
"2021-12-29 03:10:40+00",5.3,5.3,,,97,-198,-1,1009.85,43.7,0
"2021-12-29 03:15:40+00",5.2,5.2,,,131,-176,-3,1009.75,43.7,0
"2021-12-29 03:20:40+00",6.0,7.0,,,167,-195,-2,1009.57,43.7,0
"2021-12-29 03:25:40+00",5.2,5.2,,44.8,97,-192,-2,1009.56,43.7,0
"2021-12-29 03:30:40+00",5.0,7.0,,,41,-196,0,1009.59,43.8,0
"2021-12-29 03:35:40+00",5.8,6.8,,,53,-240,-7,1009.6,44,0
"2021-12-29 03:40:40+00",4.8,5.8,,,27,-203,-3,1009.74,44.2,0
"2021-12-29 03:45:40+00",4.2,5.2,,,27,-166,-3,1009.81,44.3,0
"2021-12-29 03:50:40+00",3.2,4.2,,45.3,-18,-122,-3,1010.25,44.4,0
"2021-12-29 03:55:40+00",0.9,1.9,,,-22,-13,-3,1010.45,44.4,0
"2021-12-29 04:00:40+00",5.0,6.0,,45.1,-51,210,2,1010.54,44.3,0
"2021-12-29 04:05:40+00",4.9,5.9,,,37,197,3,1010.29,44.1,0
"2021-12-29 04:10:40+00",8.1,9.1,,,-18,349,4,1010.66,44,0
"2021-12-29 04:15:40+00",7.4,9.4,,,-8,325,9,1010.3,43.8,0
"2021-12-29 04:20:40+00",7.7,8.7,,,258,212,20,1009.77,43.7,0
"2021-12-29 04:25:40+00",7.4,8.4,,43.5,57,309,3,1010.09,43.6,0
"2021-12-29 04:30:40+00",8.1,9.1,,43.4,-7,355,12,1010.43,43.4,0
"2021-12-29 04:35:40+00",6.5,8.5,,,10,294,-5,1010.5,43.2,0
"2021-12-29 04:40:40+00",6.1,7.1,,43.4,138,214,1,1009.98,43.1,0
"2021-12-29 04:45:40+00",6.2,7.2,,,220,149,9,1009.65,43,0
"2021-12-29 04:50:40+00",6.2,7.2,,43.3,187,188,9,1009.44,43,0
"2021-12-29 04:55:40+00",7.2,8.2,,43.3,233,213,15,1009.3,42.9,0
"2021-12-29 05:00:40+00",8.2,9.2,,,218,263,4,1009.24,42.9,0
"2021-12-29 05:05:40+00",7.3,8.3,,43.3,199,232,0,1009.4,42.9,0
"2021-12-29 05:10:40+00",8.3,9.3,,43.3,297,225,26,1009.07,42.9,0
"2021-12-29 05:15:40+00",9.0,10.0,,43.3,223,295,1,1008.99,42.9,0
"2021-12-29 05:20:40+00",10.2,11.2,,43.3,304,320,14,1008.83,42.8,0
"2021-12-29 05:25:40+00",9.7,10.7,,43.3,265,314,12,1008.96,42.9,0
"2021-12-29 05:30:40+00",10.9,12.9,,43.2,367,323,23,1008.53,42.9,0
"2021-12-29 05:35:40+00",12.1,13.1,,,383,369,11,1008.52,42.9,0
"2021-12-29 05:40:40+00",11.0,13.0,,43.2,352,326,19,1008.56,42.9,0
"2021-12-29 05:45:40+00",10.6,11.6,,43.2,338,320,8,1008.78,42.9,0
"2021-12-29 05:50:40+00",8.5,9.5,,43.1,320,212,13,1008.49,42.9,0
"2021-12-29 05:55:40+00",7.8,8.8,,,312,166,21,1008.28,42.9,0
"2021-12-29 06:00:40+00",8.0,9.0,,,265,232,15,1008.53,42.8,0
"2021-12-29 06:05:40+00",8.0,10.0,,,324,176,8,1008.55,42.9,0
"2021-12-29 06:10:40+00",9.0,11.0,,43.3,313,250,27,1008.57,42.9,0
"2021-12-29 06:15:40+00",10.3,11.3,,,378,273,18,1008.36,42.9,0
"2021-12-29 06:20:40+00",9.2,11.2,,43.4,401,94,25,1007.81,42.9,0
"2021-12-29 06:25:40+00",7.3,8.3,,,319,53,25,1007.92,43,0
"2021-12-29 06:30:40+00",5.0,6.0,,,214,24,14,1007.93,43,0
"2021-12-29 06:35:40+00",5.8,6.8,,,246,101,18,1008.05,43.2,0
"2021-12-29 06:40:40+00",7.3,8.3,,44.3,261,189,12,1008.11,43.3,0
"2021-12-29 06:45:40+00",7.6,8.6,,44.4,284,182,13,1008.13,43.5,0
"2021-12-29 06:50:40+00",7.5,8.5,,44.5,294,159,15,1007.98,43.7,0
"2021-12-29 06:55:40+00",5.4,6.4,,44.5,201,123,16,1008.02,43.7,0
"2021-12-29 07:00:40+00",5.3,6.3,,,216,105,11,1007.95,43.8,0
"2021-12-29 07:05:40+00",6.5,7.5,,,268,117,13,1008.14,44,0
"2021-12-29 07:10:40+00",7.2,8.2,,,307,87,20,1007.98,44,0
"2021-12-29 07:15:40+00",7.8,8.8,,,348,43,28,1007.9,44.1,0
"2021-12-29 07:20:40+00",8.7,10.7,,45.1,367,163,19,1007.93,44.2,0
"2021-12-29 07:25:40+00",8.6,9.6,,45,261,265,13,1008.15,44.3,0
"2021-12-29 07:30:40+00",6.9,7.9,,,271,142,16,1008,44.3,0
"2021-12-29 07:35:40+00",7.4,8.4,,,246,213,13,1008.1,44.3,0
"2021-12-29 07:40:40+00",7.0,7.0,,,227,199,13,1007.92,44.3,0
"2021-12-29 07:45:40+00",7.2,8.2,,,154,265,5,1007.88,44.2,0
"2021-12-29 07:50:40+00",4.7,6.7,,44,92,161,0,1007.63,43.9,0
"2021-12-29 07:55:40+00",5.0,7.0,,43.7,209,23,-3,1007.16,43.7,0
"2021-12-29 08:00:40+00",7.1,9.1,,,261,164,12,1007.15,43.6,0
"2021-12-29 08:05:40+00",5.8,6.8,,,204,148,6,1007.08,43.5,0
"2021-12-29 08:10:40+00",6.5,8.5,,44.1,241,155,23,1007.03,43.5,0
"2021-12-29 08:15:40+00",6.0,7.0,,,203,166,6,1007.14,43.5,0
"2021-12-29 08:20:40+00",6.3,7.3,,,278,64,18,1007.42,43.7,0
"2021-12-29 08:25:40+00",9.1,10.1,,,410,56,31,1007.32,43.9,0
"2021-12-29 08:30:40+00",8.9,9.9,,46.3,397,27,29,1007.29,44.2,0
"2021-12-29 08:35:40+00",10.0,12.0,,46.3,450,41,37,1007.04,44.5,0
"2021-12-29 08:40:40+00",9.7,10.7,,,430,57,37,1007.1,44.7,0
"2021-12-29 08:45:40+00",9.7,10.7,,,428,68,35,1007.28,45,0
"2021-12-29 08:50:40+00",8.8,9.8,,,389,70,26,1007.38,45.1,0
"2021-12-29 08:55:40+00",7.5,8.5,,,327,54,18,1007.52,45.2,0
"2021-12-29 09:00:40+00",9.2,11.2,,,418,50,23,1007.5,45.2,0
"2021-12-29 09:05:40+00",8.7,9.7,,,387,44,32,1007.49,45.2,0
"2021-12-29 09:10:40+00",9.3,10.3,,,421,16,29,1007.31,45.3,0
"2021-12-29 09:15:40+00",9.3,11.3,,,422,-17,23,1007.31,45.5,0
"2021-12-29 09:20:40+00",9.3,10.3,,46.7,413,-2,20,1007.08,45.5,0
"2021-12-29 09:25:40+00",9.8,10.8,,46.6,439,51,31,1007.04,45.6,0
"2021-12-29 09:30:40+00",9.2,11.2,,,412,-7,35,1007.03,45.7,0
"2021-12-29 09:35:40+00",7.9,8.9,,,347,37,22,1007.18,45.8,0
"2021-12-29 09:40:40+00",8.2,9.2,,,369,36,20,1007.22,45.8,0
"2021-12-29 09:45:40+00",8.7,9.7,,46.7,392,74,24,1007.39,45.8,0
"2021-12-29 09:50:40+00",8.4,9.4,,,380,56,28,1007.19,45.8,0
"2021-12-29 09:55:40+00",9.0,10.0,,,398,71,28,1007.02,45.8,0
"2021-12-29 10:00:40+00",8.1,10.1,,,344,119,20,1007.18,45.8,0
"2021-12-29 10:05:40+00",7.6,8.6,,,325,110,28,1007.28,45.9,0
"2021-12-29 10:10:40+00",9.8,10.8,,,428,95,23,1006.95,45.9,0
"2021-12-29 10:15:40+00",7.7,8.7,,,329,108,18,1007.1,45.9,0
"2021-12-29 10:20:40+00",7.7,8.7,,46.9,329,94,20,1007.23,45.9,0
"2021-12-29 10:25:40+00",7.8,8.8,,,343,75,24,1007.29,45.9,0
"2021-12-29 10:30:40+00",5.0,7.0,,,201,88,11,1007.67,45.9,0
"2021-12-29 10:35:40+00",7.8,8.8,,47.1,346,57,26,1007.62,45.9,0
"2021-12-29 10:40:40+00",6.2,7.2,,,268,87,15,1007.65,46,0
"2021-12-29 10:45:40+00",6.2,7.2,,47,254,98,16,1007.68,46,0
"2021-12-29 10:50:40+00",8.4,8.4,,47,376,73,26,1007.5,46,0
"2021-12-29 10:55:40+00",5.9,6.9,,,235,113,11,1007.52,46.1,0
"2021-12-29 11:00:40+00",6.8,7.8,,,286,125,17,1007.48,46.1,0
"2021-12-29 11:05:40+00",7.2,8.2,,,267,171,15,1007.51,46.1,0
"2021-12-29 11:10:40+00",6.3,6.3,,,210,173,13,1007.81,46.2,0
"2021-12-29 11:15:40+00",6.7,7.7,,47,290,120,24,1007.63,46.1,0
"2021-12-29 11:20:40+00",6.2,7.2,,,248,121,11,1007.69,46.1,0
"2021-12-29 11:25:40+00",5.5,6.5,,47,229,103,11,1007.77,46.1,0
"2021-12-29 11:30:40+00",6.7,7.7,,,284,87,24,1007.89,46.1,0
"2021-12-29 11:35:40+00",5.8,6.8,,,242,84,12,1007.92,46.1,0
"2021-12-29 11:40:40+00",7.1,8.1,,,309,59,29,1007.66,46.1,0
"2021-12-29 11:45:40+00",6.1,7.1,,,256,81,25,1007.89,46.1,0
"2021-12-29 11:50:40+00",7.1,8.1,,,268,165,19,1007.97,46.1,0
"2021-12-29 11:55:40+00",7.6,7.6,,,216,234,8,1008.19,46.2,0
"2021-12-29 12:00:40+00",7.0,7.0,,,224,205,12,1008.03,46.2,0
"2021-12-29 12:05:40+00",6.2,6.2,,,207,175,12,1008,46.2,0
"2021-12-29 12:10:40+00",7.0,8.0,,,256,167,20,1007.84,46.1,0
"2021-12-29 12:15:40+00",6.1,7.1,,,246,119,24,1007.75,46.1,0
"2021-12-29 12:20:40+00",6.3,7.3,,46.5,244,129,12,1007.64,46,0
"2021-12-29 12:25:40+00",7.0,8.0,,,293,85,21,1007.76,46,0
"2021-12-29 12:30:40+00",8.3,9.3,,,371,25,30,1007.53,46,0
"2021-12-29 12:35:40+00",9.2,10.2,,,392,175,24,1007.83,46.1,0
"2021-12-29 12:40:40+00",6.5,7.5,,,235,166,15,1008.32,46.3,0
"2021-12-29 12:45:40+00",7.0,7.0,,47.4,192,221,-3,1008.82,46.4,0
"2021-12-29 12:50:40+00",6.7,7.7,,,74,266,4,1008.99,46.5,0
"2021-12-29 12:55:40+00",6.1,7.1,,46.7,-39,260,11,1008.98,46.4,0
"2021-12-29 13:00:40+00",9.2,10.2,,,43,399,0,1009.21,46.2,0
"2021-12-29 13:05:40+00",6.4,8.4,,,83,252,-1,1009.26,46,0
"2021-12-29 13:10:40+00",6.4,7.4,,,144,225,3,1009.15,45.9,0
"2021-12-29 13:15:40+00",7.3,8.3,,,167,254,3,1009.14,45.8,0
"2021-12-29 13:20:40+00",8.2,9.2,,45.9,214,265,1,1009.16,45.8,0
"2021-12-29 13:25:40+00",8.9,10.9,,,156,352,0,1009.22,45.8,0
"2021-12-29 13:30:40+00",8.2,10.2,,46,224,272,-3,1009.16,45.9,0
"2021-12-29 13:35:40+00",7.3,8.3,,,150,267,-4,1009.59,46,0
"2021-12-29 13:40:40+00",6.3,7.3,,46.3,122,237,-1,1009.8,46.1,0
"2021-12-29 13:45:40+00",6.3,8.3,,,64,264,-1,1010.09,46.2,0
"2021-12-29 13:50:40+00",6.1,8.1,,,122,222,2,1009.97,46.3,0
"2021-12-29 13:55:40+00",6.1,7.1,,,120,219,0,1009.98,46.3,0
"2021-12-29 14:00:40+00",8.0,9.0,,,262,237,18,1009.72,46.3,0
"2021-12-29 14:05:40+00",9.1,10.1,,,271,279,9,1009.86,46.3,0
"2021-12-29 14:10:40+00",9.6,10.6,,46.1,327,272,24,1009.72,46.2,0
"2021-12-29 14:15:40+00",8.2,9.2,,,218,266,5,1010.09,46.2,0
"2021-12-29 14:20:40+00",9.1,10.1,,,296,261,21,1009.99,46.3,0
"2021-12-29 14:25:40+00",8.9,9.9,,,268,273,9,1010.1,46.4,0
"2021-12-29 14:30:40+00",8.7,9.7,,,272,258,10,1010.1,46.6,0
"2021-12-29 14:35:40+00",8.9,9.9,,,216,295,-6,1010.28,46.7,0
"2021-12-29 14:40:40+00",8.0,10.0,,,143,304,4,1010.56,46.9,0
"2021-12-29 14:45:40+00",9.1,10.1,,,162,356,-8,1010.59,46.9,0
"2021-12-29 14:50:40+00",7.8,8.8,,,206,264,1,1010.5,46.8,0
"2021-12-29 14:55:40+00",8.1,10.1,,,212,260,9,1010.4,46.7,0
"2021-12-29 15:00:40+00",8.5,9.5,,,254,264,6,1010.28,46.7,0
"2021-12-29 15:05:40+00",8.1,10.1,,,156,314,-3,1010.52,46.8,0
"2021-12-29 15:10:40+00",8.0,10.0,,46.3,126,324,-3,1010.46,46.8,0
"2021-12-29 15:15:40+00",9.2,10.2,,,71,375,-2,1010.58,46.9,0
"2021-12-29 15:20:40+00",9.2,11.2,,,40,394,-17,1010.85,47,0
"2021-12-29 15:25:40+00",9.1,10.1,,,-18,406,20,1010.83,46.9,0.2
"2021-12-29 15:30:40+00",8.6,10.6,,,187,316,2,1010.43,47,9.1
"2021-12-29 15:35:40+00",9.3,11.3,,,130,376,-3,1010.69,47.3,0.2
"2021-12-29 15:40:40+00",9.1,10.1,,,156,350,-4,1010.7,47.4,8.6
"2021-12-29 15:45:40+00",7.7,9.7,,,94,316,-7,1011,47.6,0
"2021-12-29 15:50:40+00",9.9,10.9,,,77,414,-8,1011.05,47.5,0
"2021-12-29 15:55:40+00",8.0,11.0,,,76,331,10,1011.15,47.5,0
"2021-12-29 16:00:40+00",8.3,10.3,,,126,321,-2,1010.95,47.4,0
"2021-12-29 16:05:40+00",8.4,9.4,,,163,311,4,1010.83,47.4,0
"2021-12-29 16:10:40+00",7.2,9.2,,,126,282,2,1010.74,47.5,0
"2021-12-29 16:15:40+00",7.4,8.4,,,134,281,2,1010.72,47.6,0
"2021-12-29 16:20:40+00",8.1,10.1,,,151,311,-12,1010.84,47.7,2.3
"2021-12-29 16:25:40+00",9.1,11.1,,,221,312,-4,1010.49,47.8,13.3
"2021-12-29 16:30:40+00",10.4,11.4,,,284,341,6,1010.34,47.8,0.8
"2021-12-29 16:35:40+00",7.2,10.2,,,123,266,-1,1010.65,47.8,0
"2021-12-29 16:40:40+00",7.3,9.3,,,152,284,-8,1010.63,47.9,0.1
"2021-12-29 16:45:40+00",7.7,8.7,,,212,251,-4,1010.45,47.8,2.4
"2021-12-29 16:50:40+00",9.5,10.5,,,261,305,5,1010.23,48,9.2
"2021-12-29 16:55:40+00",9.0,10.0,,,181,344,-15,1010.42,48,0.3
"2021-12-29 17:00:40+00",6.8,8.8,,,56,284,5,1010.65,48.1,13.6
"2021-12-29 17:05:40+00",6.6,7.6,,,-17,283,11,1010.98,48.3,2.5
"2021-12-29 17:10:40+00",8.3,9.3,,,28,362,11,1010.8,48.4,17.2
"2021-12-29 17:15:40+00",7.4,8.4,,,17,310,-14,1011.16,48.5,1.9
"2021-12-29 17:20:40+00",7.4,9.4,,,105,292,-14,1010.93,48.6,15.9
"2021-12-29 17:25:40+00",4.5,6.5,,,48,161,9,1011.07,48.7,1.1
"2021-12-29 17:30:40+00",7.7,8.7,,,233,231,-1,1010.74,48.6,0.7
"2021-12-29 17:35:40+00",7.3,8.3,,,208,226,-1,1010.65,48.6,0.2
"2021-12-29 17:40:40+00",6.0,7.0,,,157,194,6,1010.69,48.6,0.2
"2021-12-29 17:45:40+00",4.4,6.4,,,76,155,19,1010.92,48.7,0
"2021-12-29 17:50:40+00",7.4,8.4,,,219,226,7,1010.78,48.8,0
"2021-12-29 17:55:40+00",6.1,7.1,,,196,165,21,1010.79,48.8,0
"2021-12-29 18:00:40+00",6.4,7.4,,,204,184,4,1010.82,48.8,10.2
"2021-12-29 18:05:40+00",5.8,7.8,,,209,131,18,1010.62,48.9,1.3
"2021-12-29 18:10:40+00",7.4,8.4,,,278,174,9,1010.55,49,0.2
"2021-12-29 18:15:40+00",8.4,9.4,,,310,203,14,1010.38,48.8,0.1
"2021-12-29 18:20:40+00",7.0,8.0,,,276,152,24,1010.52,48.7,8.5
"2021-12-29 18:25:40+00",7.1,9.1,,,252,178,18,1010.57,48.7,0
"2021-12-29 18:30:40+00",7.1,8.1,,,223,215,4,1010.79,48.6,0
"2021-12-29 18:35:40+00",6.8,7.8,,,224,199,6,1010.66,48.4,0
"2021-12-29 18:40:40+00",7.8,8.8,,,243,236,2,1010.66,48.4,0
"2021-12-29 18:45:40+00",8.1,9.1,,,263,240,8,1010.7,48.3,0.7
"2021-12-29 18:50:40+00",9.6,11.6,,,329,266,20,1010.59,48.3,0.4
"2021-12-29 18:55:40+00",10.3,12.3,,,341,298,3,1010.52,48.3,1
"2021-12-29 19:00:40+00",9.5,13.5,,,336,267,22,1010.55,48.4,6.2
"2021-12-29 19:05:40+00",8.4,9.4,,,301,219,34,1010.61,48.4,0.1
"2021-12-29 19:10:40+00",9.6,11.6,,,340,264,20,1010.75,48.4,1.5
"2021-12-29 19:15:40+00",9.1,11.1,,,334,232,28,1010.84,48.3,2.2
"2021-12-29 19:20:40+00",11.1,12.1,,,408,292,17,1010.82,48.2,0
"2021-12-29 19:25:40+00",10.0,12.0,,47,349,283,34,1010.89,48,0
"2021-12-29 19:30:40+00",11.3,13.3,,,400,319,26,1010.88,47.7,0.5
"2021-12-29 19:35:40+00",10.3,11.3,,,356,288,26,1010.8,47.6,0
"2021-12-29 19:40:40+00",10.1,13.1,,,318,293,29,1010.89,47.5,0
"2021-12-29 19:45:40+00",10.5,12.5,,,335,318,15,1010.9,47.4,0.9
"2021-12-29 19:50:40+00",12.0,13.0,,,403,357,15,1011.01,47.3,4.9
"2021-12-29 19:55:40+00",11.5,13.5,,,389,342,20,1010.95,47.3,0
"2021-12-29 20:00:40+00",11.2,12.2,,,353,346,10,1010.9,47.2,0
"2021-12-29 20:05:40+00",10.4,12.4,,,350,297,21,1011.12,47.1,0
"2021-12-29 20:10:40+00",9.1,10.1,,,333,231,27,1011.23,47.1,0
"2021-12-29 20:15:40+00",9.5,11.5,,,344,251,24,1011.4,47.1,0
"2021-12-29 20:20:40+00",8.6,9.6,,,323,200,23,1011.42,47.1,0
"2021-12-29 20:25:40+00",7.0,8.0,,,275,149,19,1011.49,47.2,0
"2021-12-29 20:30:40+00",8.5,9.5,,,328,191,7,1011.49,47.2,0
"2021-12-29 20:35:40+00",8.0,10.0,,,327,166,18,1011.53,47.2,0
"2021-12-29 20:40:40+00",8.6,9.6,,,343,171,30,1011.53,47.1,0
"2021-12-29 20:45:40+00",10.0,11.0,,,384,239,25,1011.61,46.9,0
"2021-12-29 20:50:40+00",9.6,10.6,,,381,204,16,1011.53,46.7,0
"2021-12-29 20:55:40+00",9.0,10.0,,,351,209,7,1011.65,46.6,0
"2021-12-29 21:00:40+00",7.3,8.3,,46.1,276,166,11,1011.74,46.5,0
"2021-12-29 21:05:40+00",7.0,7.0,,,293,121,16,1011.77,46.4,0
"2021-12-29 21:10:40+00",7.4,8.4,,,316,88,16,1011.76,46.3,0
"2021-12-29 21:15:40+00",4.9,5.9,,,204,80,24,1011.96,46.4,0
"2021-12-29 21:20:40+00",7.2,8.2,,46.1,231,213,10,1012.05,46.2,0
"2021-12-29 21:25:40+00",11.2,12.2,,,379,320,14,1012.25,46.1,0
"2021-12-29 21:30:40+00",9.3,11.3,,,323,258,23,1012.36,46,0
"2021-12-29 21:35:40+00",10.8,12.8,,,371,307,35,1012.4,45.9,0
"2021-12-29 21:40:40+00",11.0,13.0,,,384,317,12,1012.5,45.8,0
"2021-12-29 21:45:40+00",9.4,10.4,,,299,280,10,1012.78,45.7,0
"2021-12-29 21:50:40+00",10.7,11.7,,,373,297,29,1012.68,45.6,0
"2021-12-29 21:55:40+00",12.6,14.6,,,439,351,23,1012.74,45.6,0
"2021-12-29 22:00:40+00",9.2,11.2,,,322,255,41,1012.89,45.6,0
"2021-12-29 22:05:40+00",10.7,12.7,,,378,309,16,1013.06,45.5,0
"2021-12-29 22:10:40+00",9.5,10.5,,,260,305,9,1013.42,45.5,0
"2021-12-29 22:15:40+00",11.4,12.4,,,308,369,5,1013.38,45.4,0
"2021-12-29 22:20:40+00",11.0,12.0,,,337,336,14,1013.27,45.4,0
"2021-12-29 22:25:40+00",10.9,12.9,,,393,290,33,1012.98,45.3,0
"2021-12-29 22:30:40+00",9.1,11.1,,,319,246,21,1013.04,45.3,0
"2021-12-29 22:35:40+00",8.1,9.1,,,254,236,10,1013.09,45.3,0
"2021-12-29 22:40:40+00",7.3,8.3,,,211,228,2,1013.26,45.2,0
"2021-12-29 22:45:40+00",5.2,6.2,,,146,159,2,1013.43,45.2,0
"2021-12-29 22:50:40+00",7.2,8.2,,,163,251,0,1013.66,45.1,0
"2021-12-29 22:55:40+00",6.8,7.8,,,187,213,8,1013.47,45.1,0
"2021-12-29 23:00:40+00",7.6,8.6,,,181,263,3,1013.42,45,0
"2021-12-29 23:05:40+00",8.2,9.2,,,229,260,9,1013.53,45,0
"2021-12-29 23:10:40+00",10.9,11.9,,,333,338,31,1013.36,45,0
"2021-12-29 23:15:40+00",9.1,11.1,,,203,327,5,1013.53,45,0
"2021-12-29 23:20:40+00",10.1,12.1,,,249,348,7,1013.42,45,0
"2021-12-29 23:25:40+00",10.5,11.5,,,323,323,14,1013.33,45,0
"2021-12-29 23:30:40+00",8.0,9.0,,,299,212,21,1013.34,45,0
"2021-12-29 23:35:40+00",7.7,8.7,,,300,168,13,1013.26,45,0
"2021-12-29 23:40:40+00",8.0,10.0,,,271,223,17,1013.41,45,0
"2021-12-29 23:45:40+00",10.0,11.0,,,290,309,10,1013.26,45.1,0
"2021-12-29 23:50:40+00",7.8,8.8,,,197,263,-1,1013.57,45,0
"2021-12-29 23:55:40+00",6.8,8.8,,,147,236,2,1013.53,45,0
